Regional Weather Roundup
Issued by NWS

Home | Current Version | Previous Version | Graphics & Text | Print | Product List | Glossary On
Versions: 1 2 3 4 5 6 7 8 9 10 11 12 13 14 15 16 17 18 19 20 21 22 23 24 25 26 27 28 29 30 31 32 33 34 35 36 37 38 39 40 41 42 43 44 45 46 47 48 49 50
000
ASUS44 KMEG 051010
RWRTN
TENNESSEE HOURLY STATE WEATHER ROUNDUP
NATIONAL WEATHER SERVICE MEMPHIS TN
500 AM CDT THU MAY 05 2016

TNZ002-004-019-021-049-052-054-088>092-051100-
WEST TENNESSEE

CITY           SKY/WX    TMP DP  RH WIND       PRES   REMARKS
MEMPHIS INTL   CLEAR     52  45  77 W5        29.90S
NWS MEMPHIS      N/A     48 N/A N/A MISG        N/A
JACKSON        CLEAR     45  42  89 SW5       29.86F
DYERSBURG      CLEAR     48  45  87 W6        29.87S
UNION CITY     CLEAR     45  45 100 W5        29.84S
LEXINGTON      PTCLDY    41  41 100 CALM      29.84R
$$

TNZ008-025-027-028-033-062-065-066-051100-
NORTH MIDDLE TENNESSEE

CITY           SKY/WX    TMP DP  RH WIND       PRES   REMARKS
NASHVILLE      MOCLDY    45  41  86 CALM      29.81S
CLARKSVILLE    PTCLDY    45  40  82 W7        29.81S
SMYRNA         PTCLDY    43  40  89 CALM      29.82S
COOKEVILLE     CLEAR     39  39 100 CALM      29.77S
CROSSVILLE     CLEAR     42  40  92 W7        29.76S
$$

TNZ061-075-076-078-094-096-097-051100-
SOUTH MIDDLE TENNESSEE

CITY           SKY/WX    TMP DP  RH WIND       PRES   REMARKS
FAYETTEVILLE   CLEAR     45  43  93 CALM      29.81F
TULLAHOMA      CLEAR     37  37 100 NW6       29.80F WCI  33
WINCHESTER     MOCLDY    39  37  93 CALM      29.81S VSB 3/4
MCMINNVILLE    PTCLDY    43  43 100 SW3       29.79S
COLUMBIA       PTCLDY   N/A N/A N/A CALM      29.81S
SHELBYVILLE    CLEAR     41  39  93 CALM      29.82S
$$

TNZ017-018-042-046-047-051100-
NORTHEAST TENNESSEE

CITY           SKY/WX    TMP DP  RH WIND       PRES   REMARKS
TRI CITIES     MOCLDY    44  42  93 W6        29.71R
$$

TNZ012-013-036-069-073-074-051100-
CENTRAL EAST TENNESSEE

CITY           SKY/WX    TMP DP  RH WIND       PRES   REMARKS
KNOXVILLE      MOCLDY    47  44  90 W3        29.75R
OAK RIDGE      PTCLDY    46  44  93 CALM      29.76S
GATLINBURG     CLOUDY    46  43  87 W5        29.73S
MORRISTOWN     PTSUNNY   46  46 100 W5        29.71F
$$

TNZ083-085-099-051100-
SOUTHEAST TENNESSEE

CITY           SKY/WX    TMP DP  RH WIND       PRES   REMARKS
CHATTANOOGA    PTCLDY    49  42  77 VRB6      29.79R
$$

SKY/WX REPORTED AS FAIR MEANS FEW OR NO CLOUDS BELOW
12 THOUSAND FEET.





USA.gov is the U.S. government's official web portal to all federal, state and local government web resources and services.